SL-16 DEB, 29097

Orbit data source: Space-Track

SL-16 DEB, 29097 is space debris in LEO originally from a launch on Fri, 26 Mar 1993 UTC launched from the Tyuratam Missile And Space Complex (TTMTR). Debris objects in space refer to the collection of defunct objects orbiting the Earth. Examples of debris include non-operational satellites, rocket bodies, and fragments generated from explosions, collisions, or faulty payload assembly.

Loading next visibility...
Identifier
29097, 1993-016AL
Orbit
LEO
Country
Flag of CISCIS
Related business
Manufacturer
Unknown
Mission
Spacecraft
Bus & Motor
Unknown
Mass
Unknown
Launch date (UTC)
1993-03-26 (33 years ago)
Launch vehicle
Unknown
Launch site
Tyuratam Missile And Space Complex (TTMTR)
Object type
Payload
Rocket body
Debris
Shape & HBR
Unknown shape, 0.1 m
Radar Cross Section
Small (<0.1 m²)

Expand to show TLE details & history
Last TLE update: 1 day ago

TLE from 1 day ago
0 SL-16 DEB
1 29097U 93016AL  25352.54346604  .00000114  00000-0  11140-3 0  9991
2 29097  71.0038 182.0121 0124651 150.9603 242.2517 13.94544680248962
Epoch: 2025-12-18T13:02Z
TLE epoch observation values (Epoch: 2025-12-18T13:02:35.465Z)
Latitude
30.09007°
Longitude
-89.58741°
Altitude
959.185 km
Speed
7.353 km/s
True Right ascension
12h 53m 49s
True Declination
29° 56' 43"
Sunlit
Object was in daylight at epoch
Visualization orbit readout
Latitude
Unknown
Longitude
Unknown
Altitude
Unknown
Speed
Unknown
Apparent Right ascension
Unknown
Apparent Declination
Unknown
Sunlit
N/A
Visualization observer readout
Local Sidereal Time
18:11:48
Azimuth
Unknown
Elevation
Unknown
Doppler factor
Unknown
Orbital elements
Apogee altitude
1,001.548 km
Perigee altitude
819.836 km
Semi-major axis
7,288.829 km
Eccentricity
0.01247
Inclination
71.0038°
RAAN
182.0121°
Arg. of periapsis
150.9603°
True anomaly
240.99678°
Mean anomaly
242.2517°
Eccentric anomaly
241.62332°
Mean motion
3.48784 °/min
Orbital period
103.22 mins
BSTAR
0.0001114
Loading maneuver chart data...
Computing Atmospheric mass density...
Loading historical data...
Loading historical data...
Loading historical data...
Loading historical data...
Loading historical data...
Loading historical data...
Loading historical data...

Documentation

Showing up to 5 results
|